Location: Unspecified
(58.7730°N, 5.8460°E)
Time: 14:07:19
(UTC+02:00)

Okean 3 - Visible Passes

Search period start: 20 May 2018 00:00
Search period end: 30 May 2018 00:00
Orbit: 577 x 602 km, 82.5° (Epoch: 20 May)

Date Brightness Start Highest point End Pass type
(mag) Time Alt. Az. Time Alt. Az. Time Alt. Az.
20 May 6.5 00:38:05 10° WNW 00:39:51 12° NW 00:41:37 10° NNW visible
20 May 5.0 23:05:39 10° SW 23:09:43 39° WNW 23:13:46 10° N visible
21 May 5.5 23:14:05 10° SW 23:17:56 31° WNW 23:21:46 10° N visible
22 May 6.0 23:22:39 10° WSW 23:26:11 24° WNW 23:29:43 10° N visible
23 May 6.3 23:31:20 10° WSW 23:34:27 19° WNW 23:37:35 10° N visible
24 May 6.5 23:40:10 10° W 23:42:46 16° NW 23:45:22 10° NNW visible
25 May 6.7 23:49:15 10° WNW 23:51:07 12° NW 23:52:59 10° NNW visible
